Big Delta, AK

9:51 PM AKDT on October 23, 2017 (GMT -0800)
Allen Army Air Field

Weather History for PABI - December, 2011

Change the Weather History Date:

Sunday, December 4, 2011

  Actual Average Record
Temperature  
Mean Temperature 38 °F -  
Max Temperature 50 °F 7 °F 50 °F (2011)
Min Temperature 25 °F -1 °F -43 °F (2012)
Degree Days  
Heating Degree Days 27    
Moisture  
Dew Point 29 °F    
Average Humidity 79    
Maximum Humidity 100    
Minimum Humidity 44    
Precipitation  
Precipitation 0.14 in - - ()
Sea Level Pressure  
Sea Level Pressure 29.60 in    
Wind  
Wind Speed 26 mph (SW)    
Max Wind Speed 52 mph    
Max Gust Speed 72 mph    
Visibility 5 miles    
Events Fog , Snow    
Averages and records for this station are not official NWS values.
T = Trace of Precipitation, MM = Missing Value Source: NWS Daily Summary

Daily Weather History Graph

Daily Weather History Graph

Search for Another Location

Airport or City:

Trip Planner

Search our weather history database for the weather conditions in past years. The results will help you decide how hot, cold, wet, or windy it might be!

Date:

Astronomy

Dec. 04, 2011 Rise Set
Actual Time 10:06 AM AKST 2:59 PM AKST
Civil Twilight 8:55 AM AKST 4:10 PM AKST
Nautical Twilight 7:49 AM AKST 5:16 PM AKST
Astronomical Twilight 6:50 AM AKST 6:15 PM AKST
Moon 1:09 PM AKST (12/4) 2:55 AM AKST (12/4)
Length of Visible Light 7h 15m
Length of Day
4h 52m
Waxing Gibbous, 73% of the Moon is Illuminated
Dec 4
Waxing Gibbous
Dec 10
Full
Dec 17
Last Quarter
Dec 24
New
Dec 31
First Quarter

Hourly Weather History & Observations

Time (AKST) Temp. Windchill Dew Point Humidity Pressure Visibility Wind Dir Wind Speed Gust Speed Precip Events Conditions
12:53 AM 45.0 °F 33.6 °F 30.0 °F 56% 29.77 in 10.0 mi South 42.6 mph 63.3 mph N/A   Clear
1:53 AM 46.0 °F 34.7 °F 30.0 °F 54% 29.75 in 10.0 mi South 46.0 mph 59.8 mph N/A   Clear
2:53 AM 46.0 °F 35.3 °F 32.0 °F 58% 29.71 in 10.0 mi South 40.3 mph 66.7 mph N/A   Clear
3:53 AM 48.0 °F - 30.9 °F 52% 29.67 in 10.0 mi South 35.7 mph 52.9 mph N/A   Mostly Cloudy
4:53 AM 48.0 °F - 30.0 °F 50% 29.60 in 10.0 mi South 35.7 mph 49.5 mph N/A   Mostly Cloudy
5:53 AM 48.9 °F - 28.0 °F 44% 29.54 in 10.0 mi South 41.4 mph 62.1 mph N/A   Mostly Cloudy
6:53 AM 46.9 °F - 30.0 °F 52% 29.51 in 10.0 mi South 41.4 mph 63.3 mph N/A   Overcast
7:53 AM 50.0 °F - 28.9 °F 44% 29.45 in 10.0 mi South 51.8 mph 72.5 mph N/A   Overcast
8:53 AM 50.0 °F - 30.0 °F 46% 29.47 in 10.0 mi SSW 44.9 mph 59.8 mph N/A   Overcast
9:53 AM 46.9 °F - 28.0 °F 48% 29.48 in 10.0 mi South 21.9 mph 36.8 mph N/A   Overcast
10:53 AM 41.0 °F 35.2 °F 26.1 °F 55% 29.45 in 10.0 mi East 9.2 mph 29.9 mph N/A   Overcast
11:15 AM 48.2 °F - 30.2 °F 50% 29.40 in 10.0 mi South 33.4 mph 42.6 mph N/A   Overcast
11:53 AM 48.0 °F - 30.9 °F 52% 29.44 in 10.0 mi SSW 24.2 mph 35.7 mph N/A   Overcast
12:53 PM 45.0 °F 37.4 °F 32.0 °F 60% 29.50 in 10.0 mi SW 18.4 mph 34.5 mph N/A   Overcast
1:53 PM 43.0 °F 36.0 °F 33.1 °F 68% 29.50 in 10.0 mi WSW 13.8 mph 23.0 mph N/A   Overcast
2:48 PM 33.8 °F 26.4 °F 32.0 °F 93% 29.53 in 5.0 mi WNW 9.2 mph - 0.00 in Snow Light Snow
2:53 PM 33.1 °F 24.9 °F 32.0 °F 96% 29.58 in 2.5 mi WNW 10.4 mph 17.3 mph 0.00 in Snow Light Snow
3:03 PM 33.8 °F 25.8 °F 30.2 °F 87% 29.53 in 1.2 mi NW 10.4 mph 20.7 mph 0.00 in Snow Light Snow
3:14 PM 32.0 °F 20.8 °F 30.2 °F 93% 29.54 in 1.0 mi NW 17.3 mph 20.7 mph 0.00 in Snow Light Snow
3:34 PM 32.0 °F 19.5 °F 30.2 °F 93% 29.55 in 0.8 mi NW 21.9 mph 32.2 mph 0.00 in Snow Light Snow
3:53 PM 30.0 °F 18.7 °F 28.9 °F 96% 29.62 in 0.8 mi NW 16.1 mph 29.9 mph 0.00 in Snow Light Snow
4:12 PM 28.4 °F 15.4 °F 28.4 °F 100% 29.58 in 0.8 mi NW 19.6 mph 32.2 mph 0.00 in Snow Light Snow
4:53 PM 28.9 °F 15.8 °F 27.0 °F 92% 29.66 in 0.8 mi NW 20.7 mph 33.4 mph 0.00 in Snow Light Snow
5:18 PM 28.4 °F 19.1 °F 26.6 °F 93% 29.61 in 0.5 mi NW 10.4 mph - 0.01 in Fog , Snow Snow
5:38 PM 28.4 °F 18.5 °F 28.4 °F 100% 29.62 in 0.8 mi NNW 11.5 mph - 0.02 in Snow Light Snow
5:53 PM 28.0 °F 18.1 °F 27.0 °F 96% 29.66 in 0.8 mi NNW 11.5 mph - 0.02 in Snow Light Snow
6:05 PM 28.4 °F 22.2 °F 26.6 °F 93% 29.61 in 1.0 mi NNW 5.8 mph - 0.00 in Snow Light Snow
6:53 PM 28.0 °F - 27.0 °F 96% 29.66 in 0.8 mi Calm Calm - 0.03 in Snow Light Snow
7:03 PM 28.4 °F - 26.6 °F 93% 29.62 in 1.0 mi Calm Calm - 0.01 in Snow Light Snow
7:53 PM 28.0 °F 21.7 °F 27.0 °F 96% 29.67 in 1.0 mi South 5.8 mph - 0.04 in Snow Light Snow
8:45 PM 28.4 °F 22.2 °F 26.6 °F 93% 29.62 in 1.0 mi South 5.8 mph - 0.04 in Snow Light Snow
8:53 PM 28.0 °F 22.8 °F 27.0 °F 96% 29.68 in 1.2 mi South 4.6 mph - 0.04 in Snow Light Snow
9:12 PM 28.4 °F 22.2 °F 26.6 °F 93% 29.63 in 1.5 mi South 5.8 mph - 0.01 in Snow Light Snow
9:27 PM 28.4 °F 21.2 °F 26.6 °F 93% 29.62 in 1.5 mi South 6.9 mph - 0.01 in Snow Light Snow
9:40 PM 28.4 °F 21.2 °F 26.6 °F 93% 29.62 in 2.5 mi SSE 6.9 mph - 0.01 in Snow Light Snow
9:48 PM 28.4 °F 21.2 °F 26.6 °F 93% 29.63 in 4.0 mi South 6.9 mph - 0.01 in Snow Light Snow
9:53 PM 28.0 °F 20.8 °F 27.0 °F 96% 29.69 in 5.0 mi South 6.9 mph - 0.01 in Snow Light Snow
10:46 PM 26.6 °F - 24.8 °F 93% 29.64 in 10.0 mi Calm Calm - 0.00 in   Mostly Cloudy
10:53 PM 27.0 °F - 26.1 °F 96% 29.70 in 10.0 mi Calm Calm - 0.00 in   Mostly Cloudy
11:53 PM 25.0 °F - 25.0 °F 100% 29.70 in 10.0 mi Calm Calm - N/A   Mostly Cloudy